(209277) = 2003 YS15 = 2005 JC3

Discovered at Kitt Peak on 2003-12-17 by Spacewatch.

Orbit

Orbit type: Main Belt

Note: WebGL enabled browser required.

epoch2024-03-31.0
epoch JD2460400.5
perihelion date2021-09-03.78386
perihelion JD2459461.28386
argument of perihelion (°)116.54883
ascending node (°)66.50142
inclination (°)6.43169
eccentricity0.1780243
perihelion distance (AU)2.1370023
Tisserand w.r.t. Jupiter3.4
ΔV w.r.t. Earth (km/sec)9.4
semimajor axis (AU)2.5998362
mean anomaly (°)220.82610
mean daily motion (°/day)0.23511750
aphelion distance (AU)3.063
period (years)4.19
P-vector [x]-0.99341995
P-vector [y]-0.09074034
P-vector [z]0.06987837
Q-vector [x]0.05063188
Q-vector [y]-0.89523728
Q-vector [z]-0.44270377
absolute magnitude16.04
phase slope0.15
uncertainty0
referenceMPEC 2024-E02
observations used697
oppositions15
arc length (days)9174
first opposition used1998
last opposition used2023
residual rms (arc-secs)0.65
perturbers coarse indicatorM-v
perturbers precise indicator003Ek
first observation date used1998-09-29.0
last observation date used2023-11-11.0
computer nameMPCLINUX
JD of orbit computation2456909.223726
perihelion JD uncertainty (days)4.5367E-05
argument of perihelion uncertainty (°)3.6604E-05
ascending node uncertainty (°)3.4488E-05
inclination uncertainty (°)4.4603E-06
eccentricity uncertainty 3.7953E-08
perihelion distance uncertainty (AU)9.9434E-08
Minimum Orbit Intersection Distances (in AU)
for orbit epoch: 2460400.5, reference: E2024-E02
Mercury1.72821
Venus1.41773
Earth1.14838
Mars0.5064
Jupiter1.91314
Saturn6.25997
Uranus16.2787
Neptune26.7985

Observations

712 total observations over interval: 1998 09 29.02450 – 2023 11 11.300419
These data are available for download (format description).

Date (UT) J2000 RA J2000 Dec Magn Location Ref
1998 09 29.02450 00 44 08.69 -04 08 50.6 21.0 V 910 – Caussols-ODAS MPS 137031
1998 09 29.04711 00 44 07.48 -04 08 57.1 21.3 V 910 – Caussols-ODAS MPS 137031
1998 09 29.07034 00 44 06.24 -04 09 03.7 21.1 V 910 – Caussols-ODAS MPS 137031
1999 12 15.32475 06 43 28.33 +27 42 04.3 18.8   704 – Lincoln Laboratory ETS, New Mexico MPS 137032
1999 12 15.34109 06 43 27.19 +27 42 08.5 19.3   704 – Lincoln Laboratory ETS, New Mexico MPS 137032
1999 12 15.35706 06 43 26.40 +27 42 12.9 18.9   704 – Lincoln Laboratory ETS, New Mexico MPS 137032
1999 12 15.37281 06 43 25.39 +27 42 16.8 19.2   704 – Lincoln Laboratory ETS, New Mexico MPS 137032
2003 11 21.33932 05 15 06.27 +23 57 29.2 20.3   704 – Lincoln Laboratory ETS, New Mexico MPS 137032
2003 11 21.35214 05 15 05.56 +23 57 29.0 20.4   704 – Lincoln Laboratory ETS, New Mexico MPS 137032
2003 11 21.36513 05 15 04.83 +23 57 30.0 20.1   704 – Lincoln Laboratory ETS, New Mexico MPS 137032
2003 12 17.35298 04 47 48.04 +24 22 22.5 19.8 V 691 – Steward Observatory, Kitt Peak-Spacewatch MPS 94880
2003 12 17.37943 04 47 46.27 +24 22 22.6 20.1 V 691 – Steward Observatory, Kitt Peak-Spacewatch MPS 94880
2003 12 17.40733 04 47 44.43 +24 22 23.4 19.8 V 691 – Steward Observatory, Kitt Peak-Spacewatch MPS 94880
2003 12 18.27496 04 46 49.03 +24 22 44.4 19.9   704 – Lincoln Laboratory ETS, New Mexico MPS 94880
2003 12 18.28906 04 46 48.07 +24 22 44.4 20.0   704 – Lincoln Laboratory ETS, New Mexico MPS 94880
2003 12 18.30309 04 46 47.16 +24 22 44.1 20.0   704 – Lincoln Laboratory ETS, New Mexico MPS 94880
2003 12 18.31789 04 46 46.25 +24 22 45.2 20.2   704 – Lincoln Laboratory ETS, New Mexico MPS 94880
2003 12 18.33263 04 46 45.20 +24 22 44.7 19.7   704 – Lincoln Laboratory ETS, New Mexico MPS 94880
2003 12 23.19913 04 41 44.04 +24 24 15.9 19.2   704 – Lincoln Laboratory ETS, New Mexico MPS 95874
2003 12 23.19932 04 41 43.99 +24 24 14.4 19.7   704 – Lincoln Laboratory ETS, New Mexico MPS 95874
2003 12 23.20712 04 41 43.55 +24 24 14.7 20.4   704 – Lincoln Laboratory ETS, New Mexico MPS 95874
2003 12 23.21202 04 41 43.16 +24 24 14.4 20.0   704 – Lincoln Laboratory ETS, New Mexico MPS 95874
2003 12 23.21220 04 41 43.15 +24 24 15.0 20.4   704 – Lincoln Laboratory ETS, New Mexico MPS 95874
2003 12 23.21969 04 41 42.77 +24 24 15.4 20.0   704 – Lincoln Laboratory ETS, New Mexico MPS 95874
2003 12 23.22526 04 41 42.43 +24 24 14.6 19.8   704 – Lincoln Laboratory ETS, New Mexico MPS 95874
2003 12 23.22544 04 41 42.34 +24 24 14.2 19.7   704 – Lincoln Laboratory ETS, New Mexico MPS 95874
2003 12 23.23231 04 41 42.00 +24 24 16.0 20.0   704 – Lincoln Laboratory ETS, New Mexico MPS 95874
2003 12 23.23822 04 41 41.66 +24 24 16.1 19.7   704 – Lincoln Laboratory ETS, New Mexico MPS 95874
2003 12 23.23840 04 41 41.58 +24 24 15.3 20.0   704 – Lincoln Laboratory ETS, New Mexico MPS 95874
2003 12 23.24487 04 41 41.15 +24 24 15.2 20.2   704 – Lincoln Laboratory ETS, New Mexico MPS 95874
2003 12 23.25120 04 41 40.77 +24 24 16.4 20.1   704 – Lincoln Laboratory ETS, New Mexico MPS 95874
2003 12 23.25139 04 41 40.73 +24 24 16.2 20.1   704 – Lincoln Laboratory ETS, New Mexico MPS 95874
2003 12 27.24565 04 37 51.19 +24 25 06.7 20.6   704 – Lincoln Laboratory ETS, New Mexico MPS 95874
2003 12 27.25848 04 37 50.47 +24 25 07.5 20.5   704 – Lincoln Laboratory ETS, New Mexico MPS 95874
2003 12 27.27161 04 37 49.71 +24 25 05.7 20.6   704 – Lincoln Laboratory ETS, New Mexico MPS 95874
2003 12 29.26170 04 36 02.93 +24 25 28.5 20.2 V 691 – Steward Observatory, Kitt Peak-Spacewatch MPS 95875
2003 12 29.29533 04 36 01.09 +24 25 28.9 20.3 V 691 – Steward Observatory, Kitt Peak-Spacewatch MPS 95875
2003 12 29.32924 04 35 59.28 +24 25 28.8 20.3 V 691 – Steward Observatory, Kitt Peak-Spacewatch MPS 95875
2005 05 03.38756 15 51 35.69 -17 11 50.5 18.5 R 703 – Catalina Sky Survey MPS 133397
2005 05 03.39568 15 51 35.30 -17 11 51.2 18.1 R 703 – Catalina Sky Survey MPS 133397
2005 05 03.40379 15 51 34.79 -17 11 51.2 18.4 R 703 – Catalina Sky Survey MPS 133397
2005 05 03.41191 15 51 34.33 -17 11 51.4 18.2 R 703 – Catalina Sky Survey MPS 133397
2005 05 04.30913 15 50 46.37 -17 12 17.7 18.6   704 – Lincoln Laboratory ETS, New Mexico MPS 133397
2005 05 04.34127 15 50 44.50 -17 12 18.7 18.8   704 – Lincoln Laboratory ETS, New Mexico MPS 133397
2005 05 04.35156 15 50 43.99 -17 12 18.1 19.3   704 – Lincoln Laboratory ETS, New Mexico MPS 133397
2005 05 08.36839 15 46 58.71 -17 14 05.2 17.9 R G96 – Mt. Lemmon Survey MPS 134061
2005 05 08.37628 15 46 58.23 -17 14 05.5 17.9 R G96 – Mt. Lemmon Survey MPS 134061
2005 05 08.38416 15 46 57.75 -17 14 05.8 17.7 R G96 – Mt. Lemmon Survey MPS 134061
2005 05 08.39205 15 46 57.31 -17 14 05.9 15.8 R G96 – Mt. Lemmon Survey MPS 134061
2005 05 09.34457 15 46 02.16 -17 14 29.1 19.1   704 – Lincoln Laboratory ETS, New Mexico MPS 134061
2005 05 09.35582 15 46 01.53 -17 14 28.9 18.5   704 – Lincoln Laboratory ETS, New Mexico MPS 134061
2005 05 09.36635 15 46 00.82 -17 14 28.7 19.0   704 – Lincoln Laboratory ETS, New Mexico MPS 134061
2005 05 09.37636 15 46 00.32 -17 14 29.1 18.9   704 – Lincoln Laboratory ETS, New Mexico MPS 134061
2005 05 18.39680 15 37 02.47 -17 17 52.5 18.1   644 – Palomar Mountain/NEAT MPS 135973
2005 05 18.40791 15 37 01.78 -17 17 52.7 17.9   644 – Palomar Mountain/NEAT MPS 135973
2005 05 18.41854 15 37 01.07 -17 17 53.1 17.7   644 – Palomar Mountain/NEAT MPS 135973
2005 06 04.27696 15 21 44.84 -17 27 55.1 19.7   704 – Lincoln Laboratory ETS, New Mexico MPS 135973
2005 06 04.28719 15 21 44.30 -17 27 54.7 19.5   704 – Lincoln Laboratory ETS, New Mexico MPS 135973
2005 06 04.30781 15 21 43.30 -17 27 56.3 19.3   704 – Lincoln Laboratory ETS, New Mexico MPS 135973
2005 06 06.16561 15 20 21.28 -17 29 44.8 19.2 V 691 – Steward Observatory, Kitt Peak-Spacewatch MPS 135973
2005 06 06.18315 15 20 20.48 -17 29 45.9 19.2 V 691 – Steward Observatory, Kitt Peak-Spacewatch MPS 135973
2005 06 06.20060 15 20 19.69 -17 29 47.0 19.1 V 691 – Steward Observatory, Kitt Peak-Spacewatch MPS 135973
2005 06 11.28615 15 17 01.03 -17 35 49.7 18.9 V 703 – Catalina Sky Survey MPS 136528
2005 06 11.29421 15 17 00.74 -17 35 50.7 18.9 V 703 – Catalina Sky Survey MPS 136528
2005 06 11.30227 15 17 00.34 -17 35 51.5 18.8 V 703 – Catalina Sky Survey MPS 136528
2005 06 11.31030 15 17 00.02 -17 35 52.3 19.1 V 703 – Catalina Sky Survey MPS 136528
2005 06 13.24979 15 15 55.69 -17 38 38.2 19.1 V G96 – Mt. Lemmon Survey MPS 136528
2005 06 13.25653 15 15 55.47 -17 38 38.9 18.9 V G96 – Mt. Lemmon Survey MPS 136528
2005 06 13.26325 15 15 55.26 -17 38 39.6 18.9 V G96 – Mt. Lemmon Survey MPS 136528
2005 06 13.27000 15 15 55.04 -17 38 40.1 19.1 V G96 – Mt. Lemmon Survey MPS 136528
2005 06 14.21237 15 15 26.16 -17 40 06.9 19.3 V 291 – LPL/Spacewatch II MPS 136528
2005 06 14.23652 15 15 25.37 -17 40 09.0 19.4 V 291 – LPL/Spacewatch II MPS 136528
2005 06 14.26065 15 15 24.68 -17 40 11.1 19.1 V 291 – LPL/Spacewatch II MPS 136528
2007 10 20.37748 04 12 34.92 +18 47 10.3 19.9 V G96 – Mt. Lemmon Survey MPS 222499
2007 10 20.38412 04 12 34.70 +18 47 10.3 19.8 V G96 – Mt. Lemmon Survey MPS 222499
2007 10 20.39075 04 12 34.48 +18 47 10.2 19.7 V G96 – Mt. Lemmon Survey MPS 222499
2007 10 20.39732 04 12 34.27 +18 47 10.1 19.8 V G96 – Mt. Lemmon Survey MPS 222499
2007 10 31.30053 04 05 32.60 +18 43 08.2 19.5 V G96 – Mt. Lemmon Survey MPS 223422
2007 10 31.30390 04 05 32.46 +18 43 08.1 19.5 V G96 – Mt. Lemmon Survey MPS 223422
2007 10 31.30727 04 05 32.28 +18 43 08.1 19.2 V G96 – Mt. Lemmon Survey MPS 223422
2007 10 31.31069 04 05 32.13 +18 43 07.8 19.4 V G96 – Mt. Lemmon Survey MPS 223422
2007 11 08.20865 03 58 48.26 +18 36 59.4   691 – Steward Observatory, Kitt Peak-Spacewatch MPS 224819
2007 11 08.22632 03 58 47.28 +18 36 58.5   691 – Steward Observatory, Kitt Peak-Spacewatch MPS 224819
2007 11 08.24399 03 58 46.26 +18 36 57.2   691 – Steward Observatory, Kitt Peak-Spacewatch MPS 224819
2007 11 14.25760 03 52 58.01 +18 30 46.3 19.6   704 – Lincoln Laboratory ETS, New Mexico MPS 226831
2007 11 14.27007 03 52 57.28 +18 30 46.7 19.7   704 – Lincoln Laboratory ETS, New Mexico MPS 226831
2007 11 14.28256 03 52 56.48 +18 30 44.6 19.8   704 – Lincoln Laboratory ETS, New Mexico MPS 226831
